KHTSKUNI

Guest
Details From KHTS - Tri State Milton J Ferguson Fld
To KUNI - Ohio University Snyder Field
Flight Number -
Tags generated
Created
Modified
Stats Distance 54 nm / 101 km
Max Altitude 3,900 ft / 1,189 m
Waypoints 3
Social Downloads 1
Likes 0
Share VATSIM

Download

Looking for another format? Having issues loading an existing format? Contact us
Advertisement - Login to hide

Notes

Basic altitude profile: - Ascent Rate: 2500ft/min - Ascent Speed: 250kts - Cruise Altitude: 35000ft - Cruise Speed: 420kts - Descent Rate: 1500ft/min - Descent Speed: 250kts Options: - Use NATs: yes - Use PACOTS: yes - Use low airways: yes - Use high airways: yes

Route

KHTS CROUP KUNI

ID Type Via Altitude Latitude Longitude Leg Dist Tot Dist Heading (true) Name
O KHTS APT - 0 ft / 0 m 38.36574˚ -82.55712˚ - 0 nm - Tri State Milton J Ferguson Fld
CROUP FIX - 3,900 ft / 1,189 m 38.50483˚ -82.39901˚ 11 nm 11 nm 42° / 42° -
O KUNI APT - 0 ft / 0 m 39.21189˚ -82.22925˚ 43 nm 54 nm 11° / 11° Ohio University Snyder Field

Altitude Profile

Advertisement - Login to hide

KHTS

Details ICAO KHTS (HTS)
Name Tri State Milton J Ferguson Fld
Region United States
Timezone America/New_York (UTC-4.0)
Stats Elevation 828 ft / 252 m (AMSL)
Location 38.365742° -82.557118°
Runways 2
Magnetic Variation 7.157° W

METAR

KHTS 200951Z AUTO 23004KT 9SM CLR 18/17 A3006 RMK AO2 SLP174 T01830172

Decode

TAF

KHTS 200903Z 2009/2106 21005KT P6SM SCT150 FM201500 23008KT P6SM BKN080 FM202100 27008KT P6SM BKN080

Decode

Departure Runways

ID Width Length Bearing (true) Bearing (mag) Surface Threshold Offset Overrun Length
03 60 ft / 18 m 3,011 ft / 918 m 22.28° 29.44° Asphalt 0 ft / 0 m 0 ft / 0 m
12 150 ft / 46 m 6,506 ft / 1,983 m 112.45° 119.61° Asphalt 0 ft / 0 m 0 ft / 0 m
21 60 ft / 18 m 3,011 ft / 918 m 202.29° 209.45° Asphalt 0 ft / 0 m 0 ft / 0 m
30 150 ft / 46 m 6,506 ft / 1,983 m 292.47° 299.63° Asphalt 0 ft / 0 m 200 ft / 61 m

KUNI

Details ICAO KUNI
Name Ohio University Snyder Field
Region United States
Timezone America/New_York (UTC-4.0)
Stats Elevation 766 ft / 233 m (AMSL)
Location 39.211892° -82.229254°
Runways 1
Magnetic Variation 7.538° W

METAR

KUNI 201020Z AUTO 22004KT 1 1/2SM BR OVC003 19/19 A3004 RMK AO2 T01850185

Decode

TAF

Not found

Destination Runways

ID Width Length Bearing (true) Bearing (mag) Surface Threshold Offset Overrun Length
07 98 ft / 30 m 5,593 ft / 1,705 m 60.60° 68.14° Asphalt 899 ft / 274 m 0 ft / 0 m
25 98 ft / 30 m 5,593 ft / 1,705 m 240.62° 248.16° Asphalt 0 ft / 0 m 0 ft / 0 m

Approach Navaids

Runway Type Ident Frequency Range Bearing (true) Bearing (mag) Slope Elevation
25 Localiser IUNI 108.75 MHz 18 nm / 33 km 240.60° 248.14° - 761 ft / 232 m (AMSL)
25 Glidescope IUNI 108.75 MHz 10 nm / 19 km 240.61° 248.15° 3.00° 757 ft / 231 m (AMSL)